Hot Springs, VA

4:46 PM EST on November 20, 2017 (GMT -0500)
Ingalls

Weather History for KHSP - July, 2014

Change the Weather History Date:

Wednesday, July 9, 2014

  Actual Average Record
Temperature  
Mean Temperature 66 °F -  
Max Temperature 72 °F 73 °F 84 °F (1999)
Min Temperature 61 °F 58 °F 55 °F (2017)
Cooling Degree Days 2    
Growing Degree Days 16 (Base 50)    
Moisture  
Dew Point 58 °F    
Average Humidity 79    
Maximum Humidity 96    
Minimum Humidity 52    
Precipitation  
Precipitation 0.01 in - - ()
Sea Level Pressure  
Sea Level Pressure 30.10 in    
Wind  
Wind Speed 14 mph (West)    
Max Wind Speed 21 mph    
Max Gust Speed 30 mph    
Visibility 6 miles    
Events Fog , Rain    
Averages and records for this station are not official NWS values.
T = Trace of Precipitation, MM = Missing Value Source: NWS Daily Summary

Daily Weather History Graph

Daily Weather History Graph

Search for Another Location

Airport or City:

Trip Planner

Search our weather history database for the weather conditions in past years. The results will help you decide how hot, cold, wet, or windy it might be!

Date:

Astronomy

Jul. 09, 2014 Rise Set
Actual Time 6:04 AM EDT 8:43 PM EDT
Civil Twilight 5:34 AM EDT 9:14 PM EDT
Nautical Twilight 4:55 AM EDT 9:53 PM EDT
Astronomical Twilight 4:12 AM EDT 10:36 PM EDT
Moon 5:54 PM EDT (7/9) 3:20 AM EDT (7/9)
Length of Visible Light 15h 40m
Length of Day
14h 38m
Waxing Gibbous, 89% of the Moon is Illuminated
Jul 9
Waxing Gibbous
Jul 12
Full
Jul 18
Last Quarter
Jul 26
New
Aug 3
First Quarter

Hourly Weather History & Observations

Time (EDT) Temp. Dew Point Humidity Pressure Visibility Wind Dir Wind Speed Gust Speed Precip Events Conditions
12:15 AM 63.1 °F 60.8 °F 92% 30.07 in 10.0 mi West 15.0 mph 23.0 mph N/A   Overcast
12:35 AM 62.8 °F 60.8 °F 93% 30.07 in 7.0 mi West 17.3 mph 25.3 mph N/A   Overcast
12:55 AM 62.6 °F 60.8 °F 94% 30.07 in 3.0 mi West 15.0 mph 23.0 mph N/A   Overcast
1:15 AM 62.6 °F 60.8 °F 94% 30.06 in 1.2 mi West 18.4 mph 24.2 mph N/A Rain Light Rain
1:35 AM 62.6 °F 60.8 °F 94% 30.05 in 1.0 mi West 18.4 mph 26.5 mph N/A Rain Light Rain
1:55 AM 62.2 °F 60.8 °F 95% 30.05 in 0.8 mi West 19.6 mph 24.2 mph N/A Rain Light Rain
2:15 AM 62.4 °F 60.8 °F 94% 30.05 in 0.8 mi West 20.7 mph 27.6 mph N/A Rain Light Rain
2:35 AM 62.2 °F 60.8 °F 95% 30.05 in 0.2 mi West 20.7 mph 25.3 mph N/A Rain Light Rain
2:55 AM 62.2 °F 60.8 °F 95% 30.05 in 0.2 mi West 19.6 mph 29.9 mph N/A Rain Light Rain
3:20 AM 62.2 °F 60.8 °F 95% 30.05 in 0.2 mi West 16.1 mph 24.2 mph N/A Rain Light Rain
3:40 AM 62.1 °F 60.8 °F 96% 30.04 in 0.2 mi West 17.3 mph 23.0 mph N/A Rain Light Rain
3:55 AM 62.1 °F 60.8 °F 96% 30.05 in 0.8 mi West 15.0 mph 20.7 mph N/A Rain Light Rain
4:15 AM 61.9 °F 60.4 °F 95% 30.05 in 0.8 mi West 13.8 mph 20.7 mph N/A Rain Light Rain
4:35 AM 61.7 °F 60.3 °F 95% 30.05 in 1.5 mi West 11.5 mph 23.0 mph N/A Rain Light Rain
4:55 AM 61.7 °F 60.3 °F 95% 30.05 in 2.0 mi West 15.0 mph 18.4 mph N/A   Overcast
5:15 AM 61.7 °F 60.1 °F 94% 30.05 in 3.0 mi West 12.7 mph - N/A   Overcast
5:35 AM 61.3 °F 59.9 °F 95% 30.06 in 4.0 mi West 12.7 mph - N/A   Overcast
5:55 AM 61.7 °F 60.3 °F 95% 30.06 in 1.2 mi West 13.8 mph - N/A   Overcast
6:15 AM 61.7 °F 60.3 °F 95% 30.07 in 0.2 mi West 16.1 mph 21.9 mph N/A Rain Light Rain
6:35 AM 61.7 °F 60.3 °F 95% 30.08 in 0.5 mi West 13.8 mph - N/A Rain Light Rain
6:50 AM 61.7 °F 60.1 °F 94% 30.08 in 1.8 mi West 13.8 mph - N/A   Overcast
7:15 AM 61.7 °F 60.3 °F 95% 30.09 in 5.0 mi West 11.5 mph 17.3 mph N/A   Overcast
7:35 AM 61.9 °F 60.4 °F 95% 30.09 in 2.5 mi West 12.7 mph - N/A Rain Light Rain
7:55 AM 62.1 °F 60.8 °F 96% 30.10 in 0.2 mi West 11.5 mph - N/A Fog Fog
8:15 AM 62.1 °F 60.8 °F 96% 30.10 in 0.2 mi West 12.7 mph - N/A Fog Fog
8:40 AM 62.2 °F 60.8 °F 95% 30.10 in 3.0 mi WSW 12.7 mph 18.4 mph N/A Rain Light Rain
8:55 AM 62.2 °F 60.8 °F 95% 30.10 in 0.8 mi West 12.7 mph - 0.01 in Rain Light Rain
9:15 AM 62.2 °F 60.8 °F 95% 30.11 in 0.2 mi WSW 13.8 mph - N/A Fog Fog
9:35 AM 62.2 °F 60.8 °F 95% 30.11 in 0.5 mi West 13.8 mph - N/A Rain Light Rain
9:55 AM 62.6 °F 61.2 °F 95% 30.11 in 1.0 mi West 13.8 mph - N/A   Overcast
10:20 AM 62.8 °F 61.3 °F 95% 30.11 in 5.0 mi WSW 13.8 mph 18.4 mph N/A   Overcast
10:35 AM 63.5 °F 61.9 °F 94% 30.11 in 7.0 mi West 11.5 mph - N/A   Overcast
10:55 AM 64.9 °F 62.6 °F 92% 30.11 in 10.0 mi WNW 10.4 mph - N/A   Overcast
11:15 AM 66.6 °F 61.9 °F 85% 30.12 in 10.0 mi West 9.2 mph 17.3 mph N/A   Mostly Cloudy
11:35 AM 67.5 °F 61.3 °F 81% 30.13 in 10.0 mi West 10.4 mph - N/A   Mostly Cloudy
11:55 AM 67.8 °F 60.8 °F 78% 30.14 in 10.0 mi West 11.5 mph 17.3 mph N/A   Overcast
12:15 PM 70.0 °F 61.0 °F 73% 30.14 in 10.0 mi West 12.7 mph 18.4 mph N/A   Mostly Cloudy
12:35 PM 69.6 °F 58.8 °F 68% 30.14 in 10.0 mi West 12.7 mph - N/A   Mostly Cloudy
12:55 PM 68.2 °F 59.9 °F 75% 30.14 in 10.0 mi West 11.5 mph - N/A   Mostly Cloudy
1:15 PM 70.2 °F 59.0 °F 68% 30.14 in 10.0 mi West 11.5 mph - N/A   Scattered Clouds
1:40 PM 69.6 °F 57.9 °F 66% 30.13 in 10.0 mi West 9.2 mph - N/A   Scattered Clouds
1:55 PM 68.5 °F 57.4 °F 67% 30.11 in 10.0 mi West 12.7 mph - N/A   Scattered Clouds
2:15 PM 68.2 °F 58.6 °F 71% 30.11 in 10.0 mi West 10.4 mph - N/A   Scattered Clouds
2:35 PM 71.1 °F 57.6 °F 62% 30.11 in 10.0 mi WNW 16.1 mph 20.7 mph N/A   Clear
2:55 PM 69.1 °F 56.3 °F 64% 30.11 in 10.0 mi West 9.2 mph - N/A   Clear
3:15 PM 69.8 °F 57.7 °F 65% 30.11 in 10.0 mi West 12.7 mph - N/A   Scattered Clouds
3:35 PM 71.1 °F 56.5 °F 60% 30.11 in 10.0 mi WSW 11.5 mph - N/A   Clear
3:55 PM 71.4 °F 56.1 °F 58% 30.11 in 10.0 mi WSW 13.8 mph 19.6 mph N/A   Scattered Clouds
4:15 PM 71.8 °F 55.2 °F 56% 30.09 in 10.0 mi WNW 11.5 mph 17.3 mph N/A   Scattered Clouds
4:35 PM 72.0 °F 55.9 °F 57% 30.09 in 10.0 mi West 13.8 mph 17.3 mph N/A   Scattered Clouds
4:55 PM 70.3 °F 56.1 °F 61% 30.10 in 10.0 mi WSW 11.5 mph - N/A   Mostly Cloudy
5:15 PM 71.4 °F 54.3 °F 55% 30.09 in 10.0 mi WSW 13.8 mph 18.4 mph N/A   Mostly Cloudy
5:40 PM 71.2 °F 55.2 °F 57% 30.09 in 10.0 mi West 9.2 mph - N/A   Scattered Clouds
5:55 PM 70.3 °F 55.6 °F 59% 30.09 in 10.0 mi West 10.4 mph - N/A   Scattered Clouds
6:15 PM 71.6 °F 55.2 °F 56% 30.09 in 10.0 mi WNW 10.4 mph - N/A   Scattered Clouds
6:35 PM 71.4 °F 54.0 °F 54% 30.10 in 10.0 mi WNW 11.5 mph - N/A   Scattered Clouds
6:55 PM 70.7 °F 52.3 °F 52% 30.11 in 10.0 mi West 8.1 mph - N/A   Scattered Clouds
7:15 PM 68.4 °F 52.2 °F 56% 30.11 in 10.0 mi WSW 9.2 mph - N/A   Clear
7:35 PM 68.2 °F 52.7 °F 58% 30.11 in 10.0 mi West 6.9 mph - N/A   Clear
7:55 PM 68.4 °F 52.7 °F 57% 30.11 in 10.0 mi WSW 5.8 mph - N/A   Clear
8:10 PM 67.3 °F 52.5 °F 59% 30.12 in 10.0 mi West 6.9 mph - N/A   Clear
8:35 PM 65.7 °F 54.9 °F 68% 30.13 in 10.0 mi WSW 5.8 mph - N/A   Scattered Clouds
8:55 PM 65.7 °F 56.3 °F 72% 30.13 in 10.0 mi West 5.8 mph - N/A   Mostly Cloudy
9:15 PM 65.3 °F 56.3 °F 73% 30.14 in 10.0 mi NW 3.5 mph - N/A   Mostly Cloudy
9:35 PM 64.6 °F 56.3 °F 74% 30.15 in 10.0 mi Calm Calm - N/A   Scattered Clouds
10:00 PM 64.2 °F 56.3 °F 75% 30.16 in 10.0 mi NW 5.8 mph - N/A   Scattered Clouds
10:15 PM 64.4 °F 55.6 °F 73% 30.16 in 10.0 mi NW 4.6 mph - N/A   Scattered Clouds
10:35 PM 64.4 °F 54.1 °F 69% 30.17 in 10.0 mi North 3.5 mph - N/A   Mostly Cloudy
11:00 PM 64.9 °F 51.1 °F 61% 30.17 in 10.0 mi North 3.5 mph - N/A   Overcast
11:15 PM 65.1 °F 50.2 °F 58% 30.17 in 10.0 mi NNW 3.5 mph - N/A   Overcast
11:35 PM 64.8 °F 51.6 °F 62% 30.17 in 10.0 mi North 3.5 mph - N/A   Overcast